�N����,����,�~����,�C��,���x,�C��,����,���ϕ���,�ő�u�ԕ���,�ő厞����,���˗�,�I�_���x,�n�����x,�ő啗���N��,DTYPE
"22/02/07","00:10",0.0,1.0,82.5,1016.6,302.8,2.7,4.8,324.8,0.00,-1.6,4.7,"00:06:16",1
"22/02/07","00:20",0.0,0.8,83.0,1016.1,325.9,3.2,6.6,310.1,0.00,-1.7,4.8,"00:18:08",1
"22/02/07","00:30",0.0,0.6,83.5,1016.4,331.3,1.8,4.8,307.6,0.00,-1.8,4.6,"00:20:10",1
"22/02/07","00:40",0.0,0.5,83.9,1016.6,327.7,1.3,2.7,330.4,0.00,-1.9,4.7,"00:39:52",1
"22/02/07","00:50",0.0,0.5,84.3,1016.4,307.5,2.8,5.2,335.1,0.00,-1.8,4.7,"00:41:52",1
"22/02/07","01:00",0.0,0.5,84.5,1016.6,297.2,3.0,5.6,319.8,0.00,-1.8,4.7,"00:53:22",1
"22/02/07","01:10",0.0,0.5,84.6,1016.1,310.1,3.4,5.4,338.6,0.00,-1.7,4.6,"01:00:32",1
"22/02/07","01:20",0.0,0.3,84.6,1016.4,319.8,2.2,3.9,334.0,0.00,-1.9,4.4,"01:16:00",1
"22/02/07","01:30",0.0,0.1,84.7,1016.8,290.0,1.5,2.9,308.4,0.00,-2.1,4.7,"01:26:16",1
"22/02/07","01:40",0.0,0.3,85.0,1016.8,302.6,2.2,4.9,337.9,0.00,-1.9,4.6,"01:38:18",1
"22/02/07","01:50",0.0,0.4,85.0,1016.8,288.0,2.3,3.9,318.5,0.00,-1.8,4.5,"01:48:48",1
"22/02/07","02:00",0.0,0.3,85.0,1017.1,281.1,1.5,2.1,306.4,0.00,-1.9,4.6,"01:50:08",1
"22/02/07","02:10",0.0,0.3,85.1,1017.1,274.7,1.6,2.4,300.6,0.00,-1.9,4.5,"02:05:04",1
"22/02/07","02:20",0.0,0.4,85.1,1016.8,287.1,1.6,2.9,279.0,0.00,-1.8,4.5,"02:14:24",1
"22/02/07","02:30",0.0,0.5,85.3,1017.1,300.5,2.0,3.7,308.6,0.00,-1.6,4.5,"02:28:16",1
"22/02/07","02:40",0.0,0.6,85.3,1017.1,291.5,1.6,3.1,322.3,0.00,-1.5,4.4,"02:30:16",1
"22/02/07","02:50",0.0,0.6,85.4,1017.1,281.3,1.7,3.3,317.9,0.00,-1.5,4.6,"02:46:48",1
"22/02/07","03:00",0.0,0.5,85.6,1017.1,317.9,1.8,3.3,327.2,0.00,-1.6,4.4,"02:56:16",1
"22/02/07","03:10",0.0,0.6,85.7,1016.6,271.2,2.1,3.4,328.4,0.00,-1.5,4.5,"03:04:40",1
"22/02/07","03:20",0.0,0.5,85.8,1016.8,288.0,2.7,4.3,248.4,0.00,-1.6,4.4,"03:13:44",1
"22/02/07","03:30",0.0,0.6,86.1,1016.6,263.5,3.0,5.5,243.0,0.00,-1.4,4.4,"03:24:32",1
"22/02/07","03:40",0.0,0.4,86.3,1017.1,273.8,2.6,4.3,249.3,0.00,-1.6,4.5,"03:31:04",1
"22/02/07","03:50",0.0,0.3,86.6,1016.4,297.4,2.6,3.6,300.5,0.00,-1.6,4.2,"03:45:36",1
"22/02/07","04:00",0.0,0.2,86.9,1016.6,304.0,2.8,4.4,325.4,0.00,-1.7,4.5,"03:58:56",1
"22/02/07","04:10",0.0,0.2,87.2,1015.9,306.1,3.0,4.8,321.6,0.00,-1.6,4.4,"04:08:40",1
"22/02/07","04:20",0.0,0.2,87.7,1016.1,293.1,2.8,4.7,281.7,0.00,-1.6,4.3,"04:18:28",1
"22/02/07","04:30",0.0,0.4,87.8,1016.4,294.5,3.2,4.5,329.6,0.00,-1.3,4.2,"04:23:20",1
"22/02/07","04:40",0.0,0.5,87.9,1016.4,289.8,3.6,6.0,308.6,0.00,-1.2,4.2,"04:35:50",1
"22/02/07","04:50",0.0,0.5,88.0,1016.8,289.2,3.2,5.6,333.2,0.00,-1.2,4.2,"04:43:58",1
"22/02/07","05:00",0.0,0.4,88.0,1016.8,290.1,3.2,5.9,325.3,0.00,-1.3,4.2,"04:52:08",1
"22/02/07","05:10",0.0,0.3,88.1,1017.1,295.5,2.7,4.3,250.0,0.00,-1.4,4.0,"05:02:18",1
"22/02/07","05:20",0.0,0.3,88.2,1016.6,282.7,2.6,3.7,292.6,0.00,-1.4,4.2,"05:12:16",1
"22/02/07","05:30",0.0,0.1,88.3,1016.6,301.4,2.7,4.2,317.4,0.00,-1.6,4.1,"05:23:52",1
"22/02/07","05:40",0.0,0.0,88.4,1016.6,296.7,2.5,3.9,323.3,0.00,-1.6,4.3,"05:30:32",1
"22/02/07","05:50",0.0,0.2,88.7,1016.6,286.8,2.8,5.2,312.7,0.00,-1.4,3.8,"05:45:24",1
"22/02/07","06:00",0.0,-0.1,88.7,1016.6,301.8,2.8,4.3,331.2,0.00,-1.7,4.0,"05:57:44",1
"22/02/07","06:10",0.0,-0.4,89.2,1016.4,317.2,3.4,4.4,336.0,0.00,-1.9,4.2,"06:04:08",1
"22/02/07","06:20",0.0,0.3,89.2,1016.4,284.2,2.8,4.5,308.6,0.00,-1.2,4.2,"06:14:32",1
"22/02/07","06:30",0.0,0.4,89.2,1016.8,292.2,2.8,4.5,309.8,0.00,-1.1,4.0,"06:29:20",1
"22/02/07","06:40",0.0,0.4,89.1,1016.8,302.4,3.2,4.3,311.0,0.00,-1.1,3.9,"06:33:36",1
"22/02/07","06:50",0.0,0.5,89.1,1017.3,296.9,3.1,4.8,333.9,0.00,-1.0,3.8,"06:42:50",1
"22/02/07","07:00",0.0,0.5,89.0,1017.5,304.8,3.2,5.5,315.1,0.00,-1.1,4.0,"06:51:00",1
"22/02/07","07:10",0.0,0.6,88.9,1017.8,309.7,4.0,5.8,331.7,0.00,-1.0,4.2,"07:04:24",1
"22/02/07","07:20",0.0,0.6,88.9,1017.8,298.7,3.1,4.7,312.9,0.00,-1.0,3.9,"07:11:20",1
"22/02/07","07:30",0.0,0.6,88.8,1017.8,298.9,3.1,5.0,317.5,0.00,-1.0,4.1,"07:29:52",1
"22/02/07","07:40",0.0,0.8,88.8,1018.2,298.7,3.5,5.5,307.5,0.00,-0.8,4.0,"07:34:12",1
"22/02/07","07:50",0.0,1.0,88.6,1018.2,291.3,3.1,4.9,301.8,0.00,-0.6,4.0,"07:43:04",1
"22/02/07","08:00",0.0,0.9,88.4,1018.2,281.0,2.7,4.0,269.5,0.00,-0.8,3.9,"07:50:24",1
"22/02/07","08:10",0.0,1.3,88.4,1018.7,296.3,2.7,3.9,318.4,0.01,-0.4,4.0,"08:08:40",1
"22/02/07","08:20",0.0,1.6,87.9,1019.2,318.0,3.1,4.5,318.4,0.04,-0.1,4.0,"08:16:40",1
"22/02/07","08:30",0.0,2.0,87.2,1019.0,304.4,3.5,5.8,313.3,0.05,0.1,4.0,"08:24:48",1
"22/02/07","08:40",0.0,2.2,86.1,1019.0,298.6,3.7,6.4,314.1,0.07,0.2,4.2,"08:38:08",1
"22/02/07","08:50",0.0,2.6,85.2,1019.7,303.8,3.6,7.2,330.3,0.10,0.4,3.9,"08:40:16",1
"22/02/07","09:00",0.0,2.8,83.7,1019.9,284.2,2.8,4.4,321.1,0.13,0.4,4.0,"08:51:32",1
"22/02/07","09:10",0.0,2.9,82.2,1020.1,303.1,3.7,5.6,307.1,0.15,0.2,3.8,"09:08:04",1
"22/02/07","09:20",0.0,3.4,80.6,1019.9,288.8,3.2,5.1,267.7,0.18,0.4,4.0,"09:11:36",1
"22/02/07","09:30",0.0,3.8,78.9,1020.6,286.7,2.6,4.3,328.7,0.21,0.5,3.9,"09:29:38",1
"22/02/07","09:40",0.0,3.8,77.4,1020.4,298.1,3.2,4.4,307.4,0.24,0.3,4.2,"09:39:58",1
"22/02/07","09:50",0.0,4.1,76.0,1019.9,297.3,3.4,5.6,326.1,0.27,0.3,4.1,"09:47:40",1
"22/02/07","10:00",0.0,4.4,75.2,1020.6,289.1,3.4,5.4,334.5,0.30,0.4,4.1,"09:51:18",1
"22/02/07","10:10",0.0,4.7,73.4,1020.8,305.1,3.5,5.8,335.0,0.33,0.4,4.2,"10:04:22",1
"22/02/07","10:20",0.0,5.5,71.9,1020.8,284.4,2.5,5.4,331.8,0.36,0.9,4.2,"10:14:02",1
"22/02/07","10:30",0.0,5.9,70.0,1020.6,331.0,1.7,4.0,335.1,0.39,0.9,4.0,"10:28:30",1
"22/02/07","10:40",0.0,6.2,67.1,1020.8,276.1,2.0,5.2,192.9,0.38,0.6,4.1,"10:36:12",1
"22/02/07","10:50",0.0,6.0,66.6,1021.1,292.3,2.3,3.7,303.7,0.25,0.3,4.2,"10:48:52",1
"22/02/07","11:00",0.0,6.3,66.2,1020.8,341.1,1.6,3.4,331.1,0.30,0.5,4.3,"10:50:08",1
"22/02/07","11:10",0.0,6.8,63.5,1020.8,296.6,1.5,4.1,330.2,0.47,0.4,4.3,"11:07:22",1
"22/02/07","11:20",0.0,6.5,63.4,1020.8,298.0,3.2,6.2,329.7,0.36,0.1,4.6,"11:13:58",1
"22/02/07","11:30",0.0,6.1,60.9,1020.8,293.6,4.0,5.9,303.8,0.43,-0.8,4.5,"11:27:54",1
"22/02/07","11:40",0.0,5.5,62.1,1020.4,289.7,3.1,4.8,342.0,0.16,-1.1,4.5,"11:34:38",1
"22/02/07","11:50",0.0,6.7,59.7,1020.4,283.1,3.4,5.1,298.6,0.55,-0.5,4.5,"11:49:28",1
"22/02/07","12:00",0.0,7.1,57.6,1020.4,279.5,3.4,6.0,314.8,0.54,-0.7,4.8,"11:57:58",1
"22/02/07","12:10",0.0,7.1,55.6,1019.7,288.8,3.6,5.2,325.3,0.53,-1.1,4.7,"12:06:08",1
"22/02/07","12:20",0.0,6.7,55.2,1019.7,276.9,3.5,5.5,305.4,0.38,-1.6,4.8,"12:17:28",1
"22/02/07","12:30",0.0,7.1,57.7,1019.7,274.0,3.1,4.5,310.2,0.43,-0.6,5.0,"12:20:42",1
"22/02/07","12:40",0.0,7.4,55.2,1019.2,298.7,2.6,4.5,338.8,0.54,-1.0,5.1,"12:37:34",1
"22/02/07","12:50",0.0,8.1,54.3,1019.4,274.3,2.3,4.3,312.7,0.52,-0.5,5.1,"12:49:34",1
"22/02/07","13:00",0.0,6.9,55.4,1019.2,318.8,2.5,4.4,344.2,0.11,-1.4,5.3,"12:53:54",1
"22/02/07","13:10",0.0,7.2,57.7,1019.0,291.8,3.0,4.7,329.1,0.37,-0.5,5.4,"13:02:40",1
"22/02/07","13:20",0.0,7.2,55.0,1018.5,265.2,2.6,3.9,251.9,0.28,-1.2,5.2,"13:10:58",1
"22/02/07","13:30",0.0,7.4,54.8,1018.7,331.8,2.2,5.5,306.8,0.28,-1.1,5.5,"13:25:56",1
"22/02/07","13:40",0.0,6.7,56.2,1019.0,328.0,4.0,6.6,327.9,0.13,-1.4,5.4,"13:32:52",1
"22/02/07","13:50",0.0,6.7,55.8,1018.5,307.9,3.7,7.7,326.9,0.18,-1.5,5.6,"13:44:38",1
"22/02/07","14:00",0.0,6.6,56.5,1018.5,307.8,3.9,6.4,310.1,0.13,-1.4,5.7,"13:55:34",1
"22/02/07","14:10",0.0,7.3,57.1,1018.0,319.8,3.5,6.7,341.2,0.30,-0.6,5.9,"14:03:32",1
"22/02/07","14:20",0.0,6.9,57.2,1018.0,341.6,2.3,4.9,343.8,0.13,-0.9,5.8,"14:14:18",1
"22/02/07","14:30",0.0,6.8,57.8,1018.2,338.1,2.6,4.4,347.1,0.12,-0.9,5.8,"14:21:04",1
"22/02/07","14:40",0.0,7.3,55.7,1018.2,331.2,3.2,6.6,341.3,0.26,-0.9,5.8,"14:32:02",1
"22/02/07","14:50",0.0,8.2,52.3,1018.0,300.0,3.1,5.0,323.9,0.46,-0.9,6.0,"14:41:56",1
"22/02/07","15:00",0.0,8.8,50.7,1017.8,334.1,2.3,5.9,352.2,0.38,-0.8,6.0,"14:57:28",1
"22/02/07","15:10",0.0,8.4,49.5,1018.2,319.8,3.2,5.7,309.2,0.37,-1.5,6.2,"15:04:40",1
"22/02/07","15:20",0.0,8.4,48.7,1018.0,303.7,2.2,4.4,341.7,0.22,-1.7,6.2,"15:18:50",1
"22/02/07","15:30",0.0,8.0,51.4,1017.8,324.4,3.0,5.1,345.1,0.17,-1.4,6.1,"15:29:52",1
"22/02/07","15:40",0.0,7.4,53.0,1018.5,335.5,3.4,5.9,326.1,0.09,-1.5,6.1,"15:39:00",1
"22/02/07","15:50",0.0,7.4,54.8,1018.0,315.0,3.1,5.5,351.3,0.12,-1.1,6.1,"15:40:34",1
"22/02/07","16:00",0.0,7.6,53.6,1018.2,327.4,2.5,5.4,309.4,0.13,-1.2,6.2,"15:50:34",1
"22/02/07","16:10",0.0,7.2,54.0,1018.5,318.1,3.1,5.0,338.4,0.06,-1.4,6.5,"16:06:12",1
"22/02/07","16:20",0.0,7.0,56.6,1018.2,334.4,3.0,4.8,313.8,0.04,-1.0,6.4,"16:10:08",1
"22/02/07","16:30",0.0,7.2,58.7,1018.0,339.4,2.5,4.4,348.0,0.09,-0.3,6.4,"16:21:14",1
"22/02/07","16:40",0.0,7.0,58.3,1018.2,337.1,3.0,4.8,339.8,0.05,-0.6,6.5,"16:39:30",1
"22/02/07","16:50",0.0,6.6,59.8,1018.5,336.0,2.3,4.2,346.1,0.03,-0.6,6.4,"16:48:24",1
"22/02/07","17:00",0.0,6.8,58.9,1018.5,331.0,2.6,3.9,330.8,0.03,-0.6,6.5,"16:50:10",1
"22/02/07","17:10",0.0,6.9,59.1,1018.7,319.5,2.0,3.2,295.0,0.02,-0.5,6.3,"17:00:48",1
"22/02/07","17:20",0.0,6.8,58.4,1018.2,326.7,2.6,4.2,295.6,0.01,-0.7,6.6,"17:18:42",1
"22/02/07","17:30",0.0,6.3,59.1,1018.5,309.5,2.6,4.4,317.5,0.00,-1.1,6.6,"17:24:32",1
"22/02/07","17:40",0.0,6.0,61.0,1018.2,327.9,2.3,5.2,327.2,0.00,-0.9,6.7,"17:34:56",1
"22/02/07","17:50",0.0,5.7,62.6,1018.5,322.9,2.1,4.0,317.0,0.00,-0.8,6.5,"17:43:12",1
"22/02/07","18:00",0.0,5.3,63.9,1018.0,325.0,2.1,4.1,312.8,0.00,-0.9,6.6,"17:55:28",1
"22/02/07","18:10",0.0,5.0,65.2,1018.0,312.3,2.3,3.7,331.7,0.00,-0.9,6.5,"18:07:44",1
"22/02/07","18:20",0.0,4.6,66.5,1018.0,304.1,2.5,3.6,322.6,0.00,-1.1,6.3,"18:15:04",1
"22/02/07","18:30",0.0,4.1,67.9,1018.2,321.9,1.6,2.5,324.6,0.00,-1.2,6.4,"18:23:44",1
"22/02/07","18:40",0.0,3.6,69.7,1018.0,322.0,1.5,3.9,335.5,0.00,-1.4,6.3,"18:38:40",1
"22/02/07","18:50",0.0,3.4,71.5,1018.0,329.2,2.1,3.4,327.1,0.00,-1.2,6.5,"18:48:24",1
"22/02/07","19:00",0.0,3.2,72.4,1018.0,303.0,2.0,3.5,326.0,0.00,-1.2,6.6,"18:50:48",1
"22/02/07","19:10",0.0,3.0,73.4,1018.0,311.6,2.2,3.2,319.8,0.00,-1.2,6.3,"19:03:52",1
"22/02/07","19:20",0.0,2.8,74.3,1017.8,311.5,2.6,4.2,328.7,0.00,-1.3,6.2,"19:15:12",1
"22/02/07","19:30",0.0,2.7,74.9,1018.2,282.0,1.3,2.8,322.7,0.00,-1.3,6.4,"19:20:48",1
"22/02/07","19:40",0.0,2.7,75.6,1018.7,262.9,1.7,3.2,260.2,0.00,-1.1,6.2,"19:38:08",1
"22/02/07","19:50",0.0,2.8,76.0,1018.7,291.9,2.6,3.7,312.5,0.00,-1.0,6.2,"19:46:56",1
"22/02/07","20:00",0.0,2.8,76.4,1019.2,326.1,2.2,3.3,327.6,0.00,-0.9,6.4,"19:59:04",1
"22/02/07","20:10",0.0,2.6,77.0,1019.2,306.7,2.1,3.1,312.3,0.00,-1.0,6.1,"20:05:12",1
"22/02/07","20:20",0.0,2.5,77.6,1019.0,314.2,2.3,3.9,314.6,0.00,-1.0,6.1,"20:14:32",1
"22/02/07","20:30",0.0,2.3,78.1,1018.7,295.3,1.1,3.1,320.1,0.00,-1.1,6.2,"20:22:56",1
"22/02/07","20:40",0.0,2.2,78.7,1019.0,290.0,1.7,2.4,288.2,0.00,-1.1,6.2,"20:39:20",1
"22/02/07","20:50",0.0,2.2,79.2,1018.7,307.6,2.5,2.8,312.5,0.00,-1.0,6.1,"20:42:56",1
"22/02/07","21:00",0.0,2.0,79.5,1018.2,313.7,1.5,2.7,316.2,0.00,-1.1,6.0,"20:50:08",1
"22/02/07","21:10",0.0,1.9,80.2,1018.5,309.8,2.2,3.1,323.6,0.00,-1.1,5.9,"21:06:16",1
"22/02/07","21:20",0.0,1.8,81.0,1018.2,316.2,2.3,3.2,322.6,0.00,-1.1,5.8,"21:18:24",1
"22/02/07","21:30",0.0,2.0,81.6,1019.0,298.1,2.0,2.8,326.6,0.00,-0.8,6.0,"21:26:56",1
"22/02/07","21:40",0.0,2.2,82.1,1018.7,297.3,1.2,2.4,309.9,0.00,-0.5,5.8,"21:30:08",1
"22/02/07","21:50",0.0,2.3,82.7,1018.7,310.5,2.1,2.7,320.9,0.00,-0.3,5.9,"21:48:24",1
"22/02/07","22:00",0.0,2.2,83.2,1018.5,308.3,2.0,2.6,312.4,0.00,-0.3,5.9,"21:50:40",1
"22/02/07","22:10",0.0,2.2,83.6,1018.2,309.4,2.2,2.7,313.9,0.00,-0.2,5.7,"22:09:20",1
"22/02/07","22:20",0.0,2.2,83.8,1018.2,323.3,2.0,3.4,317.5,0.00,-0.2,5.6,"22:11:52",1
"22/02/07","22:30",0.0,2.0,84.1,1018.7,307.1,1.3,2.0,337.2,0.00,-0.4,5.8,"22:21:28",1
"22/02/07","22:40",0.0,1.8,84.4,1018.2,285.9,1.3,1.7,306.0,0.00,-0.5,5.8,"22:38:32",1
"22/02/07","22:50",0.0,1.9,84.7,1018.0,315.5,1.8,2.4,332.6,0.00,-0.4,5.8,"22:45:52",1
"22/02/07","23:00",0.0,1.9,85.0,1017.8,304.3,1.8,2.4,336.0,0.00,-0.3,5.9,"22:50:32",1
"22/02/07","23:10",0.0,2.0,85.4,1018.0,306.2,2.3,3.2,312.7,0.00,-0.1,5.6,"23:08:48",1
"22/02/07","23:20",0.0,2.2,85.6,1018.2,294.8,2.2,3.1,310.1,0.00,0.1,5.8,"23:11:28",1
"22/02/07","23:30",0.0,2.3,85.8,1018.2,281.1,1.8,2.6,310.7,0.00,0.2,5.6,"23:22:32",1
"22/02/07","23:40",0.0,2.3,85.8,1018.2,297.3,2.0,2.9,308.5,0.00,0.2,5.6,"23:35:20",1
"22/02/07","23:50",0.0,2.4,85.8,1018.0,298.2,1.1,2.6,321.6,0.00,0.3,5.7,"23:40:32",1
"22/02/07","24:00",0.0,2.2,85.9,1018.0,292.4,1.1,2.7,325.1,0.00,0.1,5.8,"23:59:44",1
